Погода в Красных Рябинках

Россия / Орловская область     53°06′12″N   35°32′09″E
темп.,
°C
ветер,
м/с
пор.,
м/с
влажн.,
%
обл.,
%
осадки,
мм/ч
давл.,
гПа
погр.,
м
15 апреля, чт
чт1500:00+11ююз2281100 0.2 101417
03:00+10в3680100 0.2 1014103
06:00+10всв4877100 0.0 1013125
09:00+12в4867100 0.0 1012429
12:00+14юв5664100 0.1 1012865
15:00+15ююв565758 2.4 10121336
18:00+14юв2260100 0.4 101233
21:00+11в3579100 0.5 1013108
16 апреля, пт
пт1600:00+10юв357581 0.0 101396
03:00+8юв48865 0.0 1014158
06:00+6юв38945 0.0 1015174
09:00+10вюв47715 0.0 1016579
12:00+14вюв6105318 0.0 10151859
15:00+15юв7104032 0.1 10152502
18:00+13ю68575 0.0 1016648
21:00+9ююв227151 0.0 101712
17 апреля, сб
сб1700:00+8в227214 0.0 101826
03:00+7в348156 0.0 101978
06:00+6вюв228755 0.0 101917
09:00+8ю1283100 0.4 1019157
12:00+8сз3693100 1.3 1018377
15:00+9вюв4690100 9.4 1018634
18:00+8зсз2295100 9.4 1017158
21:00+7в1398100 12.1 1018219
18 апреля, вс
вс1800:00+7вюв2298100 0.0 1019100
03:00+6ююз1296100 0.0 101969
06:00+6зсз2297100 1.3 101877
09:00+7св3695100 2.3 1018404
12:00+6св5792100 0.3 1019581
15:00+7всв5992100 0.4 1020629
18:00+7всв599199 0.3 1021748
21:00+5в239424 0.3 102260
19 апреля, пн
пн1900:00+4св36967 0.0 1023123
03:00+3св379742 0.0 1023144
06:00+3св411945 0.0 1023266
09:00+7всв7118166 0.0 1023797
12:00+9всв6875100 0.1 10231070
15:00+9всв5971100 0.1 10231216
18:00+9всв6107599 0.1 1023783
21:00+6всв51289100 0.1 1023441